Date String (YYYY-MM-DD hh:mm:ss) UTC,Instrument flags,Ambient pressure (hPa),Sample flow (lpm),Bypass flow (lpm),Sample temperature (°C),Ambient temperature (°C),ASC tube jacket temperature (°C),LED temperature (°C),Box temperature (°C),Sample RH (%),Span deviation,Mass concentration (μg/m³),Mass concentration (μg/m³),Mass concentration (μg/m³)
DateTimeUTC,F1_M11,P_M11,Q1_M11,Q2_M11,T1_M11,T2_M11,T3_M11,T4_M11,T5_M11,U1_M11,ZSPAN_M11,X0_M11,X2_M11,X1_M11
2022-07-11 10:00:00,,0829.3,5.01,0.00,29.6,27.4,00.0,38.3,31.3,19.4,0000.0,0010.16,0006.17,0005.61
2022-07-11 10:01:00,,0829.2,4.99,0.00,29.5,27.4,00.0,38.3,31.2,19.5,0000.0,0010.14,0006.17,0005.62
2022-07-11 10:02:00,,0828.9,5.01,0.00,29.5,27.6,00.0,38.3,31.2,19.4,0000.0,0010.16,0006.20,0005.63
2022-07-11 10:03:00,,0829.1,5.00,0.00,29.5,27.7,00.0,38.3,31.3,19.2,0000.0,0010.10,0006.21,0005.65
2022-07-11 10:04:00,,0829.1,5.00,0.00,29.5,27.8,00.0,38.3,31.3,19.2,0000.0,0010.20,0006.24,0005.68
2022-07-11 10:05:00,,0829.0,5.00,0.00,29.5,28.0,00.0,38.3,31.3,19.1,0000.0,0009.36,0006.23,0005.69
2022-07-11 10:06:00,,0828.8,5.00,0.00,29.5,28.1,00.0,38.3,31.4,19.1,0000.0,0009.24,0006.22,0005.69
2022-07-11 10:07:00,,0828.7,5.01,0.00,29.5,28.2,00.0,38.3,31.4,19.0,0000.0,0009.31,0006.22,0005.69
2022-07-11 10:08:00,,0829.0,4.99,0.00,29.5,28.3,00.0,38.3,31.5,19.0,0000.0,0009.36,0006.21,0005.68
2022-07-11 10:09:00,,0829.1,5.00,0.00,29.6,28.4,00.0,38.3,31.5,19.0,0000.0,0009.37,0006.20,0005.66
2022-07-11 10:10:00,,0828.8,4.99,0.00,29.6,28.5,00.0,38.3,31.5,19.6,0000.0,0009.42,0006.19,0005.64
2022-07-11 10:11:00,,0828.8,5.00,0.00,29.6,28.5,00.0,38.4,31.5,19.7,0000.0,0009.33,0006.14,0005.60
2022-07-11 10:12:00,,0829.3,5.00,0.00,29.7,28.6,00.0,38.4,31.6,19.1,0000.0,0009.72,0006.15,0005.60
2022-07-11 10:13:00,,0829.3,5.00,0.00,29.7,28.7,00.0,38.4,31.6,19.0,0000.0,0009.61,0006.12,0005.61
2022-07-11 10:14:00,,0829.2,5.00,0.00,29.7,28.6,00.0,38.4,31.7,18.9,0000.0,0009.89,0006.10,0005.59
2022-07-11 10:15:00,,0829.0,5.01,0.00,29.7,27.9,00.0,38.4,31.6,18.3,0000.0,0009.75,0006.03,0005.55
2022-07-11 10:16:00,,0828.8,4.99,0.00,29.7,27.5,00.0,38.3,31.5,19.4,0000.0,0009.68,0005.98,0005.51
2022-07-11 10:17:00,,0828.8,5.01,0.00,29.6,27.5,00.0,38.3,31.4,19.6,0000.0,0009.64,0005.96,0005.50
2022-07-11 10:18:00,,0828.9,4.99,0.00,29.6,27.5,00.0,38.3,31.3,19.4,0000.0,0009.62,0005.96,0005.48
2022-07-11 10:19:00,,0828.9,5.01,0.00,29.5,27.6,00.0,38.3,31.3,19.6,0000.0,0009.49,0005.93,0005.47
2022-07-11 10:20:00,,0828.9,5.00,0.00,29.5,27.8,00.0,38.3,31.4,19.6,0000.0,0009.65,0005.91,0005.45
2022-07-11 10:21:00,,0828.9,5.01,0.00,29.5,27.9,00.0,38.3,31.4,19.6,0000.0,0009.93,0005.93,0005.45
2022-07-11 10:22:00,,0829.0,5.00,0.00,29.6,28.0,00.0,38.3,31.4,19.8,0000.0,0010.08,0005.95,0005.47
2022-07-11 10:23:00,,0828.9,4.99,0.00,29.6,28.2,00.0,38.4,31.4,19.3,0000.0,0009.70,0005.95,0005.46
2022-07-11 10:24:00,,0829.0,5.00,0.00,29.6,28.3,00.0,38.4,31.5,19.3,0000.0,0009.70,0005.95,0005.47
2022-07-11 10:25:00,,0829.0,5.00,0.00,29.6,28.4,00.0,38.4,31.5,19.3,0000.0,0009.41,0005.94,0005.46
2022-07-11 10:26:00,,0829.0,4.98,0.00,29.6,28.4,00.0,38.4,31.5,19.3,0000.0,0009.47,0005.94,0005.45
2022-07-11 10:27:00,,0829.1,5.01,0.00,29.7,28.5,00.0,38.4,31.6,19.2,0000.0,0009.77,0005.97,0005.47
2022-07-11 10:28:00,,0829.1,5.00,0.00,29.7,28.6,00.0,38.4,31.6,19.4,0000.0,0009.90,0006.00,0005.48
2022-07-11 10:29:00,,0829.0,5.00,0.00,29.7,28.6,00.0,38.4,31.6,19.5,0000.0,0009.99,0005.97,0005.49
2022-07-11 10:30:00,,0829.1,5.00,0.00,29.7,28.2,00.0,38.4,31.6,19.4,0000.0,0010.19,0005.98,0005.51
2022-07-11 10:31:00,,0829.1,4.99,0.00,29.7,27.6,00.0,38.3,31.5,19.3,0000.0,0010.08,0005.99,0005.52
2022-07-11 10:32:00,,0829.1,4.99,0.00,29.6,27.4,00.0,38.3,31.4,19.2,0000.0,0009.76,0005.97,0005.52
2022-07-11 10:33:00,,0829.1,5.01,0.00,29.6,27.5,00.0,38.3,31.3,19.4,0000.0,0009.75,0005.99,0005.54
2022-07-11 10:34:00,,0829.1,4.99,0.00,29.5,27.6,00.0,38.3,31.3,19.4,0000.0,0009.72,0005.96,0005.53
2022-07-11 10:35:00,,0829.1,5.02,0.00,29.5,27.7,00.0,38.3,31.3,19.5,0000.0,0009.81,0005.93,0005.51
2022-07-11 10:36:00,,0829.1,5.00,0.00,29.5,27.8,00.0,38.3,31.3,19.4,0000.0,0010.32,0005.92,0005.50
2022-07-11 10:37:00,,0829.1,5.00,0.00,29.5,28.0,00.0,38.3,31.4,19.5,0000.0,0010.36,0005.93,0005.51
2022-07-11 10:38:00,,0829.1,5.00,0.00,29.6,28.1,00.0,38.4,31.4,19.5,0000.0,0010.12,0005.95,0005.51
2022-07-11 10:39:00,,0829.1,5.01,0.00,29.6,28.2,00.0,38.4,31.5,19.5,0000.0,0010.01,0005.95,0005.52
2022-07-11 10:40:00,,0829.1,5.00,0.00,29.6,28.3,00.0,38.4,31.5,19.5,0000.0,0010.05,0006.00,0005.54
2022-07-11 10:41:00,,0829.1,5.00,0.00,29.6,28.4,00.0,38.4,31.5,19.4,0000.0,0009.85,0006.02,0005.56
2022-07-11 10:42:00,,0829.1,4.98,0.00,29.7,28.5,00.0,38.4,31.6,19.4,0000.0,0009.83,0006.03,0005.58
2022-07-11 10:43:00,,0829.2,5.01,0.00,29.7,28.6,00.0,38.4,31.6,19.8,0000.0,0009.86,0006.07,0005.61
2022-07-11 10:44:00,,0829.2,4.99,0.00,29.7,28.6,00.0,38.5,31.7,19.8,0000.0,0010.06,0006.09,0005.63
2022-07-11 10:45:00,,0829.2,5.00,0.00,29.7,28.7,00.0,38.5,31.7,19.8,0000.0,0010.28,0006.14,0005.65
2022-07-11 10:46:00,,0829.1,5.00,0.00,29.8,28.3,00.0,38.4,31.6,19.7,0000.0,0010.29,0006.19,0005.68
2022-07-11 10:47:00,,0829.1,4.99,0.00,29.7,27.6,00.0,38.4,31.5,19.7,0000.0,0009.78,0006.21,0005.70
2022-07-11 10:48:00,,0829.1,5.01,0.00,29.7,27.5,00.0,38.4,31.4,19.7,0000.0,0009.86,0006.22,0005.71
2022-07-11 10:49:00,,0829.1,5.00,0.00,29.6,27.5,00.0,38.4,31.4,19.8,0000.0,0010.57,0006.22,0005.69
2022-07-11 10:50:00,,0829.2,4.99,0.00,29.6,27.6,00.0,38.3,31.3,19.8,0000.0,0010.63,0006.21,0005.68
2022-07-11 10:51:00,,0829.2,5.00,0.00,29.6,27.7,00.0,38.4,31.3,19.8,0000.0,0010.48,0006.18,0005.67
2022-07-11 10:52:00,,0829.2,5.01,0.00,29.6,27.8,00.0,38.4,31.4,19.9,0000.0,0010.83,0006.21,0005.66
2022-07-11 10:53:00,,0829.2,5.00,0.00,29.6,28.0,00.0,38.4,31.4,20.0,0000.0,0011.01,0006.22,0005.65
2022-07-11 10:54:00,,0829.2,5.00,0.00,29.6,28.1,00.0,38.4,31.4,19.9,0000.0,0011.00,0006.22,0005.65
2022-07-11 10:55:00,,0829.2,5.00,0.00,29.6,28.2,00.0,38.4,31.4,19.8,0000.0,0010.76,0006.20,0005.65
2022-07-11 10:56:00,,0829.2,5.01,0.00,29.6,28.3,00.0,38.4,31.5,19.8,0000.0,0010.69,0006.19,0005.65
2022-07-11 10:57:00,,0829.2,5.00,0.00,29.6,28.4,00.0,38.4,31.5,19.8,0000.0,0010.50,0006.16,0005.64
2022-07-11 10:58:00,,0829.1,4.98,0.00,29.7,28.5,00.0,38.4,31.5,19.7,0000.0,0010.40,0006.15,0005.65
2022-07-11 10:59:00,,0829.2,5.01,0.00,29.7,28.5,00.0,38.4,31.6,19.7,0000.0,0010.27,0006.16,0005.66
